Weather in Velikie Kopani

Ukraine / Kherson District     46°29′20″N   32°58′28″E
temp.,
°C
wind,
m/s
gust,
m/s
humid.,
%
clouds,
%
prec.,
mm/h
press.,
hPa
HPBL,
m
9 may, sun
sun900:00+9nnw7136510 0.0 1016706
03:00+7nnw6117442 0.0 1019496
06:00+6nw510790 0.0 1021362
09:00+10nnw79555 0.0 10221057
12:00+14nnw79385 0.0 10232084
15:00+15nnw7831100 0.0 10232629
18:00+15nnw773912 0.0 10242198
21:00+10nne34553 0.0 102649
10 may, mon
mon1000:00+8nnw22595 0.0 102714
03:00+7n22635 0.0 102818
06:00+6n33680 0.0 102830
09:00+12n34500 0.0 1028622
12:00+16n56345 0.0 10272217
15:00+17n56315 0.0 10252328
18:00+17n673410 0.0 10232242
21:00+11nne36484 0.0 102491
11 may, tue
tue1100:00+9nnw46550 0.0 1022101
03:00+8nnw410640 0.0 1021182
06:00+8nw513675 0.0 1019326
09:00+11nnw61157100 0.0 1018598
12:00+14nnw686370 0.0 1017788
15:00+14n676998 0.0 1016639
18:00+13n3674100 0.0 1015417
21:00+12ne368266 0.1 1015145
12 may, wed
wed1200:00+8nne22893 0.0 101523
03:00+7nne358515 0.0 101476
06:00+6nne23895 0.0 101346
09:00+12e11625 0.0 1013647
12:00+16sw344661 0.0 10121871
15:00+18ssw654252 0.0 10121991
18:00+14ssw5567100 0.0 1013457
21:00+12s228081 0.0 101395
13 may, thu
thu1300:00+10sse23915 0.0 101334
03:00+10e3489100 0.0 101358
06:00+10e4888100 0.0 1012163
09:00+17ese696378 0.0 1011615
12:00+22se77445 0.0 10101151
15:00+24sse46395 0.0 10091592
18:00+21ssw5540100 0.0 1010550
21:00+14s34581 0.0 101050